Tracking 26218 objects as of 26-Sep-2022
HD Live streaming from Space Station
objects crossing your sky now

AALTO 1

Track AALTO 1 now!
10-day predictions
AALTO 1 is classified as:


NORAD ID: 42775
Int'l Code: 2017-036L
Perigee: 484.9 km
Apogee: 500.2 km
Inclination: 97.2 °
Period: 94.3 minutes
Semi major axis: 6863 km
RCS: Unknown
Launch date: June 23, 2017
Source: (FIN)
Launch site: SRIHARIKOTA (SRI)

Uplink (MHz):
Downlink (MHz): 437.220/2402.000
Beacon (MHz): 437.220
Mode: 9600bps FSK CW
Call sign: OH2A1S
Status: Active

aabbcc
Your satellite tracking list
Your tracking list is empty




NASA's NSSDC Master Catalog

Two Line Element Set (TLE):
1 42775U 17036L   22268.81353301  .00007601  00000-0  29068-3 0  9998
2 42775  97.1891 302.8367 0011151 338.9559  21.1220 15.26804607292080
Source of the keplerian elements: AMSAT